Volver al catálogo

STARLINK-35666

ActivoComunicacionesVLEO
NORAD 66222·PAYLOAD·🇺🇸 United States

Lanzado Oct 28, 2025 desde Vandenberg Space Force Base

Loading…

Próximos Pases (próximas 24 horas)

TLE

ActualizadoSource: CelesTrak SupGP

Época: Sep 14, 2026, 20:50 UTC

1 66222C 25244S   26257.86854167  .00001940  00000+0  57338-4 0  2572
2 66222  53.1594  69.7372 0001283  85.3769 295.3355 15.34374847    12

Sigue STARLINK-35666 en tiempo real con AllMySat

Download on the App Store